Time,TemperatureF,DewpointF,PressureIn,WindDirection,WindDirectionDegrees,WindSpeedMPH,WindSpeedGustMPH,Humidity,HourlyPrecipIn,Conditions,Clouds,dailyrainin,SoftwareType,DateUTC
2013-08-03 00:07:00,0.0,0.0,0.00,SW,225,0.0,0.0,0,0.00,,,-99.99,Homeseer,2013-08-03 04:07:00,
2013-08-03 00:17:00,0.0,0.0,0.00,WNW,297,0.0,0.0,0,0.00,,,-99.99,Homeseer,2013-08-03 04:17:00,
2013-08-03 00:26:00,0.0,0.0,0.00,WSW,247,0.0,0.0,0,0.00,,,-99.99,Homeseer,2013-08-03 04:26:00,
2013-08-03 00:37:00,0.0,0.0,0.00,WSW,247,0.0,0.0,0,0.00,,,-99.99,Homeseer,2013-08-03 04:37:00,
2013-08-03 00:57:00,0.0,0.0,0.00,West,270,0.0,0.0,0,0.00,,,-99.99,Homeseer,2013-08-03 04:57:00,
2013-08-03 01:07:00,0.0,0.0,0.00,WNW,297,0.0,0.0,0,0.00,,,-99.99,Homeseer,2013-08-03 05:07:00,
2013-08-03 01:16:00,0.0,0.0,0.00,WNW,297,0.0,0.0,0,0.00,,,-99.99,Homeseer,2013-08-03 05:16:00,
2013-08-03 01:27:00,0.0,0.0,0.00,WNW,297,0.0,0.0,0,0.00,,,-99.99,Homeseer,2013-08-03 05:27:00,
2013-08-03 01:37:00,0.0,0.0,0.00,WNW,297,0.0,0.0,0,0.00,,,-99.99,Homeseer,2013-08-03 05:37:00,
2013-08-03 02:07:00,0.0,0.0,0.00,WSW,247,0.0,0.0,0,0.00,,,-99.99,Homeseer,2013-08-03 06:07:00,
2013-08-03 02:17:00,0.0,0.0,0.00,WNW,297,0.0,0.0,0,0.00,,,-99.99,Homeseer,2013-08-03 06:17:00,
2013-08-03 02:27:00,0.0,0.0,0.00,WSW,247,0.0,0.0,0,0.00,,,-99.99,Homeseer,2013-08-03 06:27:00,
2013-08-03 02:37:00,0.0,0.0,0.00,WNW,297,0.0,0.0,0,0.00,,,-99.99,Homeseer,2013-08-03 06:37:00,
2013-08-03 02:47:00,0.0,0.0,0.00,WNW,297,0.0,0.0,0,0.00,,,-99.99,Homeseer,2013-08-03 06:47:00,
2013-08-03 02:57:00,0.0,0.0,0.00,WSW,247,0.0,0.0,0,0.00,,,-99.99,Homeseer,2013-08-03 06:57:00,
2013-08-03 03:07:00,0.0,0.0,0.00,WNW,297,0.0,0.0,0,0.00,,,-99.99,Homeseer,2013-08-03 07:07:00,
2013-08-03 03:17:00,0.0,0.0,0.00,WSW,247,0.0,0.0,0,0.00,,,-99.99,Homeseer,2013-08-03 07:17:00,
2013-08-03 03:27:00,0.0,0.0,0.00,WNW,297,0.0,0.0,0,0.00,,,-99.99,Homeseer,2013-08-03 07:27:00,
2013-08-03 03:37:00,0.0,0.0,0.00,West,270,0.0,0.0,0,0.00,,,-99.99,Homeseer,2013-08-03 07:37:00,
2013-08-03 03:47:00,0.0,0.0,0.00,West,270,0.0,0.0,0,0.00,,,-99.99,Homeseer,2013-08-03 07:47:00,
2013-08-03 03:57:00,0.0,0.0,0.00,West,270,0.0,0.0,0,0.00,,,-99.99,Homeseer,2013-08-03 07:57:00,
2013-08-03 04:07:00,0.0,0.0,0.00,WNW,297,0.0,0.0,0,0.00,,,-99.99,Homeseer,2013-08-03 08:07:00,
2013-08-03 04:17:00,0.0,0.0,0.00,WNW,297,0.0,0.0,0,0.00,,,-99.99,Homeseer,2013-08-03 08:17:00,
2013-08-03 04:26:00,0.0,0.0,0.00,WSW,247,0.0,0.0,0,0.00,,,-99.99,Homeseer,2013-08-03 08:26:00,
2013-08-03 04:37:00,0.0,0.0,0.00,North,0,0.0,0.0,0,0.00,,,-99.99,Homeseer,2013-08-03 08:37:00,
2013-08-03 04:47:00,0.0,0.0,0.00,North,0,0.0,0.0,0,0.00,,,-99.99,Homeseer,2013-08-03 08:47:00,
2013-08-03 04:56:00,0.0,0.0,0.00,WSW,247,0.0,0.0,0,0.00,,,-99.99,Homeseer,2013-08-03 08:56:00,
2013-08-03 05:07:00,0.0,0.0,0.00,WNW,297,0.0,0.0,0,0.00,,,-99.99,Homeseer,2013-08-03 09:07:00,
2013-08-03 05:17:00,0.0,0.0,0.00,WSW,247,0.0,0.0,0,0.00,,,-99.99,Homeseer,2013-08-03 09:17:00,
2013-08-03 05:27:00,0.0,0.0,0.00,SW,225,0.0,0.0,0,0.00,,,-99.99,Homeseer,2013-08-03 09:27:00,
2013-08-03 05:37:00,0.0,0.0,0.00,SW,225,0.0,0.0,0,0.00,,,-99.99,Homeseer,2013-08-03 09:37:00,
2013-08-03 05:47:00,0.0,0.0,0.00,SW,225,0.0,0.0,0,0.00,,,-99.99,Homeseer,2013-08-03 09:47:00,
2013-08-03 05:57:00,0.0,0.0,0.00,WNW,297,0.0,0.0,0,0.00,,,-99.99,Homeseer,2013-08-03 09:57:00,
2013-08-03 06:07:00,0.0,0.0,0.00,WNW,297,0.0,0.0,0,0.00,,,-99.99,Homeseer,2013-08-03 10:07:00,
2013-08-03 06:17:00,0.0,0.0,0.00,SW,225,0.0,0.0,0,0.00,,,-99.99,Homeseer,2013-08-03 10:17:00,
2013-08-03 06:26:00,0.0,0.0,0.00,SW,225,0.0,0.0,0,0.00,,,-99.99,Homeseer,2013-08-03 10:26:00,
2013-08-03 06:37:00,0.0,0.0,0.00,SW,225,0.0,0.0,0,0.00,,,-99.99,Homeseer,2013-08-03 10:37:00,
2013-08-03 06:47:00,0.0,0.0,0.00,SW,225,0.0,0.0,0,0.00,,,-99.99,Homeseer,2013-08-03 10:47:00,
2013-08-03 06:57:00,0.0,0.0,0.00,SW,225,0.0,0.0,0,0.00,,,-99.99,Homeseer,2013-08-03 10:57:00,
2013-08-03 07:07:00,0.0,0.0,0.00,South,180,2.5,0.0,0,0.00,,,-99.99,Homeseer,2013-08-03 11:07:00,
2013-08-03 07:17:00,0.0,0.0,0.00,SSE,157,2.9,3.4,0,0.00,,,-99.99,Homeseer,2013-08-03 11:17:00,
2013-08-03 07:27:00,0.0,0.0,0.00,North,0,2.7,2.7,0,0.00,,,-99.99,Homeseer,2013-08-03 11:27:00,
2013-08-03 07:36:00,0.0,0.0,0.00,South,180,0.0,0.0,0,0.00,,,-99.99,Homeseer,2013-08-03 11:36:00,
2013-08-03 07:47:00,0.0,0.0,0.00,SSE,157,0.0,1.6,0,0.00,,,-99.99,Homeseer,2013-08-03 11:47:00,
2013-08-03 07:57:00,0.0,0.0,0.00,South,180,3.1,4.3,0,0.00,,,-99.99,Homeseer,2013-08-03 11:57:00,
2013-08-03 08:07:00,0.0,0.0,0.00,SSE,157,6.7,6.7,0,0.00,,,-99.99,Homeseer,2013-08-03 12:07:00,
2013-08-03 08:17:00,0.0,0.0,0.00,SSE,157,4.7,8.1,0,0.00,,,-99.99,Homeseer,2013-08-03 12:17:00,
2013-08-03 08:27:00,0.0,0.0,0.00,SSE,157,3.4,3.4,0,0.00,,,-99.99,Homeseer,2013-08-03 12:27:00,
2013-08-03 08:37:00,0.0,0.0,0.00,South,180,3.6,3.8,0,0.00,,,-99.99,Homeseer,2013-08-03 12:37:00,
2013-08-03 08:47:00,0.0,0.0,0.00,SSE,157,0.9,2.5,0,0.00,,,-99.99,Homeseer,2013-08-03 12:47:00,
2013-08-03 08:57:00,0.0,0.0,0.00,SSE,157,1.1,2.5,0,0.00,,,-99.99,Homeseer,2013-08-03 12:57:00,
2013-08-03 09:07:00,0.0,0.0,0.00,North,0,2.2,0.0,0,0.00,,,-99.99,Homeseer,2013-08-03 13:07:00,
2013-08-03 09:17:00,0.0,0.0,0.00,SE,135,2.2,2.7,0,0.00,,,-99.99,Homeseer,2013-08-03 13:17:00,
2013-08-03 09:26:00,0.0,0.0,0.00,South,180,1.1,0.0,0,0.00,,,-99.99,Homeseer,2013-08-03 13:26:00,
2013-08-03 09:37:00,0.0,0.0,0.00,SW,225,0.0,2.7,0,0.00,,,-99.99,Homeseer,2013-08-03 13:37:00,
2013-08-03 09:47:00,0.0,0.0,0.00,North,0,1.6,3.6,0,0.00,,,-99.99,Homeseer,2013-08-03 13:47:00,
2013-08-03 09:57:00,0.0,0.0,0.00,SSE,157,2.7,2.7,0,0.00,,,-99.99,Homeseer,2013-08-03 13:57:00,
2013-08-03 10:07:00,0.0,0.0,0.00,SSE,157,2.5,0.0,0,0.00,,,-99.99,Homeseer,2013-08-03 14:07:00,
2013-08-03 10:16:00,0.0,0.0,0.00,SSE,157,0.0,0.0,0,0.00,,,-99.99,Homeseer,2013-08-03 14:16:00,
2013-08-03 10:27:00,0.0,0.0,0.00,North,0,1.6,2.5,0,0.00,,,-99.99,Homeseer,2013-08-03 14:27:00,
2013-08-03 10:47:00,0.0,0.0,0.00,SSE,157,0.9,2.9,0,0.00,,,-99.99,Homeseer,2013-08-03 14:47:00,
2013-08-03 10:57:00,0.0,0.0,0.00,SSE,157,1.3,0.0,0,0.00,,,-99.99,Homeseer,2013-08-03 14:57:00,
2013-08-03 11:07:00,0.0,0.0,0.00,ESE,112,1.6,2.2,0,0.00,,,-99.99,Homeseer,2013-08-03 15:07:00,
2013-08-03 11:17:00,0.0,0.0,0.00,South,180,1.3,0.0,0,0.00,,,-99.99,Homeseer,2013-08-03 15:17:00,
2013-08-03 11:27:00,0.0,0.0,0.00,North,0,1.6,0.0,0,0.00,,,-99.99,Homeseer,2013-08-03 15:27:00,
2013-08-03 11:37:00,0.0,0.0,0.00,North,0,0.0,0.0,0,0.00,,,-99.99,Homeseer,2013-08-03 15:37:00,
2013-08-03 11:47:00,0.0,0.0,0.00,South,180,2.2,3.8,0,0.00,,,-99.99,Homeseer,2013-08-03 15:47:00,
2013-08-03 11:56:00,0.0,0.0,0.00,ESE,112,1.1,1.3,0,0.00,,,-99.99,Homeseer,2013-08-03 15:56:00,
2013-08-03 12:07:00,0.0,0.0,0.00,North,0,3.4,3.4,0,0.00,,,-99.99,Homeseer,2013-08-03 16:07:00,
2013-08-03 12:17:00,0.0,0.0,0.00,South,180,2.9,0.0,0,0.00,,,-99.99,Homeseer,2013-08-03 16:17:00,
2013-08-03 12:27:00,0.0,0.0,0.00,WNW,297,3.6,3.8,0,0.00,,,-99.99,Homeseer,2013-08-03 16:27:00,
2013-08-03 12:37:00,0.0,0.0,0.00,North,0,0.0,1.6,0,0.00,,,-99.99,Homeseer,2013-08-03 16:37:00,
2013-08-03 12:47:00,0.0,0.0,0.00,South,180,3.6,4.3,0,0.00,,,-99.99,Homeseer,2013-08-03 16:47:00,
2013-08-03 12:57:00,0.0,0.0,0.00,North,0,5.8,5.8,0,0.00,,,-99.99,Homeseer,2013-08-03 16:57:00,
2013-08-03 13:07:00,0.0,0.0,0.00,SSE,157,1.1,4.9,0,0.00,,,-99.99,Homeseer,2013-08-03 17:07:00,
2013-08-03 13:17:00,0.0,0.0,0.00,SSE,157,2.0,2.9,0,0.00,,,-99.99,Homeseer,2013-08-03 17:17:00,
2013-08-03 13:27:00,0.0,0.0,0.00,WNW,297,2.2,8.1,0,0.00,,,-99.99,Homeseer,2013-08-03 17:27:00,
2013-08-03 13:36:00,0.0,0.0,0.00,South,180,2.2,0.0,0,0.00,,,-99.99,Homeseer,2013-08-03 17:36:00,
2013-08-03 13:47:00,0.0,0.0,0.00,North,0,3.1,5.4,0,0.00,,,-99.99,Homeseer,2013-08-03 17:47:00,
2013-08-03 13:57:00,0.0,0.0,0.00,North,0,2.0,3.1,0,0.00,,,-99.99,Homeseer,2013-08-03 17:57:00,
2013-08-03 14:07:00,0.0,0.0,0.00,South,180,2.5,4.7,0,0.00,,,-99.99,Homeseer,2013-08-03 18:07:00,
2013-08-03 14:17:00,0.0,0.0,0.00,SSE,157,4.0,4.0,0,0.00,,,-99.99,Homeseer,2013-08-03 18:17:00,
2013-08-03 14:27:00,0.0,0.0,0.00,South,180,4.3,4.3,0,0.00,,,-99.99,Homeseer,2013-08-03 18:27:00,
2013-08-03 14:37:00,0.0,0.0,0.00,WSW,247,2.0,3.4,0,0.00,,,-99.99,Homeseer,2013-08-03 18:37:00,
2013-08-03 14:47:00,0.0,0.0,0.00,North,0,10.1,12.3,0,0.00,,,-99.99,Homeseer,2013-08-03 18:47:00,
2013-08-03 14:57:00,0.0,0.0,0.00,North,0,8.5,10.1,0,0.00,,,-99.99,Homeseer,2013-08-03 18:57:00,
2013-08-03 15:07:00,0.0,0.0,0.00,NW,315,4.9,4.9,0,0.00,,,-99.99,Homeseer,2013-08-03 19:07:00,
2013-08-03 15:16:00,0.0,0.0,0.00,North,0,3.8,3.8,0,1.53,,,-99.99,Homeseer,2013-08-03 19:16:00,
2013-08-03 15:27:00,0.0,0.0,0.00,North,0,2.5,2.5,0,0.39,,,-99.99,Homeseer,2013-08-03 19:27:00,
2013-08-03 15:47:00,0.0,0.0,0.00,North,0,1.6,1.6,0,0.39,,,-99.99,Homeseer,2013-08-03 19:47:00,
2013-08-03 15:57:00,0.0,0.0,0.00,North,0,2.2,2.2,0,0.39,,,-99.99,Homeseer,2013-08-03 19:57:00,
2013-08-03 16:06:00,0.0,0.0,0.00,WNW,297,0.0,0.0,0,0.39,,,-99.99,Homeseer,2013-08-03 20:06:00,
2013-08-03 16:17:00,0.0,0.0,0.00,West,270,0.0,0.0,0,0.39,,,-99.99,Homeseer,2013-08-03 20:17:00,
2013-08-03 16:27:00,0.0,0.0,0.00,WNW,297,0.0,0.0,0,0.39,,,-99.99,Homeseer,2013-08-03 20:27:00,
2013-08-03 16:37:00,0.0,0.0,0.00,WNW,297,0.0,0.0,0,0.03,,,-99.99,Homeseer,2013-08-03 20:37:00,
2013-08-03 16:47:00,0.0,0.0,0.00,WNW,297,0.0,0.0,0,0.03,,,-99.99,Homeseer,2013-08-03 20:47:00,
2013-08-03 16:57:00,0.0,0.0,0.00,North,0,0.0,2.7,0,0.03,,,-99.99,Homeseer,2013-08-03 20:57:00,
2013-08-03 17:06:00,0.0,0.0,0.00,NW,315,0.0,0.0,0,0.03,,,-99.99,Homeseer,2013-08-03 21:06:00,
2013-08-03 17:17:00,0.0,0.0,0.00,WNW,297,0.0,0.0,0,0.03,,,-99.99,Homeseer,2013-08-03 21:17:00,
2013-08-03 17:27:00,0.0,0.0,0.00,North,0,2.7,3.1,0,0.03,,,-99.99,Homeseer,2013-08-03 21:27:00,
2013-08-03 17:37:00,0.0,0.0,0.00,North,0,0.0,0.0,0,0.07,,,-99.99,Homeseer,2013-08-03 21:37:00,
2013-08-03 17:47:00,0.0,0.0,0.00,WNW,297,0.0,0.0,0,0.07,,,-99.99,Homeseer,2013-08-03 21:47:00,
2013-08-03 17:56:00,0.0,0.0,0.00,NW,315,0.0,0.0,0,0.07,,,-99.99,Homeseer,2013-08-03 21:56:00,
2013-08-03 18:07:00,0.0,0.0,0.00,North,0,0.0,0.0,0,0.07,,,-99.99,Homeseer,2013-08-03 22:07:00,
2013-08-03 18:17:00,0.0,0.0,0.00,North,0,0.0,0.0,0,0.07,,,-99.99,Homeseer,2013-08-03 22:17:00,
2013-08-03 18:27:00,0.0,0.0,0.00,WNW,297,0.0,0.0,0,0.07,,,-99.99,Homeseer,2013-08-03 22:27:00,
2013-08-03 18:37:00,0.0,0.0,0.00,WNW,297,0.0,0.0,0,0.07,,,-99.99,Homeseer,2013-08-03 22:37:00,
2013-08-03 18:47:00,0.0,0.0,0.00,WNW,297,0.0,0.0,0,0.07,,,-99.99,Homeseer,2013-08-03 22:47:00,
2013-08-03 18:57:00,0.0,0.0,0.00,WNW,297,0.0,0.0,0,0.07,,,-99.99,Homeseer,2013-08-03 22:57:00,
2013-08-03 19:07:00,0.0,0.0,0.00,WNW,297,0.0,0.0,0,0.07,,,-99.99,Homeseer,2013-08-03 23:07:00,
2013-08-03 19:17:00,0.0,0.0,0.00,WNW,297,0.0,0.0,0,0.07,,,-99.99,Homeseer,2013-08-03 23:17:00,
2013-08-03 19:27:00,0.0,0.0,0.00,WNW,297,0.0,0.0,0,0.07,,,-99.99,Homeseer,2013-08-03 23:27:00,
2013-08-03 19:37:00,0.0,0.0,0.00,WNW,297,0.0,0.0,0,0.00,,,-99.99,Homeseer,2013-08-03 23:37:00,
2013-08-03 19:47:00,0.0,0.0,0.00,WNW,297,0.0,0.0,0,0.00,,,-99.99,Homeseer,2013-08-03 23:47:00,
2013-08-03 19:57:00,0.0,0.0,0.00,WNW,297,0.0,0.0,0,0.00,,,-99.99,Homeseer,2013-08-03 23:57:00,
2013-08-03 20:07:00,0.0,0.0,0.00,WNW,297,0.0,0.0,0,0.00,,,-99.99,Homeseer,2013-08-04 00:07:00,
2013-08-03 20:17:00,0.0,0.0,0.00,WNW,297,0.0,0.0,0,0.00,,,-99.99,Homeseer,2013-08-04 00:17:00,
2013-08-03 20:26:00,0.0,0.0,0.00,North,0,0.0,0.0,0,0.00,,,-99.99,Homeseer,2013-08-04 00:26:00,
2013-08-03 20:37:00,0.0,0.0,0.00,North,0,0.0,0.0,0,0.00,,,-99.99,Homeseer,2013-08-04 00:37:00,
2013-08-03 20:47:00,0.0,0.0,0.00,NW,315,0.0,0.0,0,0.00,,,-99.99,Homeseer,2013-08-04 00:47:00,
2013-08-03 20:57:00,0.0,0.0,0.00,WNW,297,0.0,0.0,0,0.00,,,-99.99,Homeseer,2013-08-04 00:57:00,
2013-08-03 21:07:00,0.0,0.0,0.00,North,0,0.0,0.0,0,0.00,,,-99.99,Homeseer,2013-08-04 01:07:00,
2013-08-03 21:17:00,0.0,0.0,0.00,North,0,0.0,0.0,0,0.00,,,-99.99,Homeseer,2013-08-04 01:17:00,
2013-08-03 21:27:00,0.0,0.0,0.00,North,0,0.0,0.0,0,0.00,,,-99.99,Homeseer,2013-08-04 01:27:00,
2013-08-03 21:37:00,0.0,0.0,0.00,North,0,0.0,0.0,0,0.00,,,-99.99,Homeseer,2013-08-04 01:37:00,
2013-08-03 21:47:00,0.0,0.0,0.00,North,0,0.0,0.0,0,0.00,,,-99.99,Homeseer,2013-08-04 01:47:00,
2013-08-03 21:57:00,0.0,0.0,0.00,NNE,22,0.0,0.0,0,0.00,,,-99.99,Homeseer,2013-08-04 01:57:00,
2013-08-03 22:06:00,0.0,0.0,0.00,NNE,22,0.0,0.0,0,0.00,,,-99.99,Homeseer,2013-08-04 02:06:00,
2013-08-03 22:17:00,0.0,0.0,0.00,South,180,0.0,0.0,0,0.00,,,-99.99,Homeseer,2013-08-04 02:17:00,
2013-08-03 22:27:00,0.0,0.0,0.00,South,180,0.0,0.0,0,0.00,,,-99.99,Homeseer,2013-08-04 02:27:00,
2013-08-03 22:37:00,0.0,0.0,0.00,South,180,0.0,0.0,0,0.00,,,-99.99,Homeseer,2013-08-04 02:37:00,
2013-08-03 22:47:00,0.0,0.0,0.00,South,180,0.0,0.0,0,0.00,,,-99.99,Homeseer,2013-08-04 02:47:00,
2013-08-03 22:57:00,0.0,0.0,0.00,South,180,0.0,0.0,0,0.00,,,-99.99,Homeseer,2013-08-04 02:57:00,
2013-08-03 23:06:00,0.0,0.0,0.00,South,180,0.0,0.0,0,0.00,,,-99.99,Homeseer,2013-08-04 03:06:00,
2013-08-03 23:17:00,0.0,0.0,0.00,South,180,0.0,0.0,0,0.00,,,-99.99,Homeseer,2013-08-04 03:17:00,
2013-08-03 23:27:00,0.0,0.0,0.00,South,180,0.0,0.0,0,0.00,,,-99.99,Homeseer,2013-08-04 03:27:00,
2013-08-03 23:37:00,0.0,0.0,0.00,WNW,297,0.0,0.0,0,0.00,,,-99.99,Homeseer,2013-08-04 03:37:00,
2013-08-03 23:47:00,0.0,0.0,0.00,WNW,297,0.0,0.0,0,0.00,,,-99.99,Homeseer,2013-08-04 03:47:00,
2013-08-03 23:57:00,0.0,0.0,0.00,WNW,297,0.0,0.0,0,0.00,,,-99.99,Homeseer,2013-08-04 03:57:00,